Hourly Data Report for June 22, 2021

ATIKOKAN (AUT)
ONTARIO
Current Station Operator: ECCC - MSC

48°45'40.000" N
91°37'41.000" W
389.30 m
6020LPQ
71747
WCH

Download Data

Hourly Data (June 2021)
Hourly Data Report for June 22, 2021
TIME
LST
Temp Definition
°C
Dew Point Definition
°C
Rel Hum Definition
%
Precip. Amount Definition
mm

Wind Dir Definition
10's deg

Wind Spd Definition
km/h
Visibility Definition
km
Stn Press Definition
kPa
Hmdx Definition


Wind Chill Definition


Weather Definition


00:00 8.7 5.9 83 0.0 30 3   96.44     LegendNANA
01:00 8.6 6.0 84 0.0 24 2   96.42     LegendNANA
02:00 6.4 5.3 93 0.0 25 2   96.41     LegendNANA
03:00 5.6 5.1 96 0.0 0 1   96.42     LegendNANA
04:00 4.3 3.9 97 0.0 0 1   96.44     LegendNANA
05:00 4.5 4.2 98 0.0   0   96.47     LegendNANA
06:00 7.5 6.4 93 0.0 26 5   96.49     LegendNANA
07:00 10.2 5.9 75 0.0 27 5   96.51     LegendNANA
08:00 11.4 4.8 64 0.0 26 7   96.50     LegendNANA
09:00 13.5 4.0 53 0.2 30 6   96.47     LegendNANA
10:00 15.1 3.9 47 0.3 25 11   96.46     LegendNANA
11:00 15.1 2.8 43 0.0 26 11   96.40     LegendNANA
12:00 14.6 5.2 53 0.0 23 8   96.39     LegendNANA
13:00 12.5 6.8 68 0.0 27 9   96.47     LegendNANA
14:00 13.2 7.6 69 0.9 23 3   96.42     LegendNANA
15:00 16.2 7.9 58 0.1 15 6   96.35     LegendNANA
16:00 16.3 7.2 55 0.0 20 11   96.32     LegendNANA
17:00 16.7 7.7 55 0.0 17 9   96.27     LegendNANA
18:00 17.3 8.1 55 0.0 16 5   96.22     LegendNANA
19:00 16.4 8.4 59 0.0 15 5   96.19     LegendNANA
20:00 14.7 8.8 67 0.0 13 5   96.15     LegendNANA
21:00 13.9 8.7 71 0.0 14 4   96.15     LegendNANA
22:00 12.6 9.1 79 0.0 13 3   96.13     LegendNANA
23:00 11.5 9.4 87 0.0 19 1   96.12     LegendNANA

Notes on Data Quality.

Legend

  • E = Estimated
  • M = Missing
  • NA = Not Available*
  • [empty] = Indicates an unobserved value
Date modified: